Time,TemperatureF,DewpointF,PressureIn,WindDirection,WindDirectionDegrees,WindSpeedMPH,WindSpeedGustMPH,Humidity,HourlyPrecipIn,Conditions,Clouds,dailyrainin,SoftwareType,DateUTC
2013-08-11 00:06:00,73.4,73.0,30.08,West,281,0.0,-999.0,100,-99.99,,,0.00,weatherlink.com 1.10,2013-08-11 04:06:00,
2013-08-11 00:21:00,73.3,73.0,30.08,West,281,0.0,-999.0,100,-99.99,,,0.00,weatherlink.com 1.10,2013-08-11 04:21:00,
2013-08-11 00:36:00,73.2,73.0,30.08,West,281,0.0,-999.0,100,-99.99,,,0.00,weatherlink.com 1.10,2013-08-11 04:36:00,
2013-08-11 00:51:00,73.0,73.0,30.08,West,281,0.0,-999.0,100,-99.99,,,0.00,weatherlink.com 1.10,2013-08-11 04:51:00,
2013-08-11 01:36:00,72.5,73.0,30.09,West,281,0.0,-999.0,100,-99.99,,,0.01,weatherlink.com 1.10,2013-08-11 05:36:00,
2013-08-11 02:06:00,72.1,72.0,30.08,West,281,0.0,-999.0,100,-99.99,,,0.01,weatherlink.com 1.10,2013-08-11 06:06:00,
2013-08-11 02:51:00,71.8,72.0,30.08,West,281,0.0,-999.0,100,-99.99,,,0.01,weatherlink.com 1.10,2013-08-11 06:51:00,
2013-08-11 03:06:00,71.7,72.0,30.08,West,281,0.0,-999.0,100,-99.99,,,0.01,weatherlink.com 1.10,2013-08-11 07:06:00,
2013-08-11 03:21:00,71.7,72.0,30.08,West,281,0.0,-999.0,100,-99.99,,,0.01,weatherlink.com 1.10,2013-08-11 07:21:00,
2013-08-11 03:36:00,71.7,72.0,30.09,West,281,0.0,-999.0,100,-99.99,,,0.01,weatherlink.com 1.10,2013-08-11 07:36:00,
2013-08-11 03:51:00,71.7,72.0,30.09,West,281,0.0,-999.0,100,-99.99,,,0.01,weatherlink.com 1.10,2013-08-11 07:51:00,
2013-08-11 04:06:00,71.7,72.0,30.09,West,281,0.0,-999.0,100,-99.99,,,0.01,weatherlink.com 1.10,2013-08-11 08:06:00,
2013-08-11 04:36:00,71.7,72.0,30.09,West,281,0.0,-999.0,100,-99.99,,,0.01,weatherlink.com 1.10,2013-08-11 08:36:00,
2013-08-11 04:51:00,71.7,72.0,30.10,West,281,0.0,-999.0,100,-99.99,,,0.01,weatherlink.com 1.10,2013-08-11 08:51:00,
2013-08-11 05:06:00,71.7,72.0,30.10,West,281,0.0,-999.0,100,-99.99,,,0.01,weatherlink.com 1.10,2013-08-11 09:06:00,
2013-08-11 05:21:00,71.6,72.0,30.09,West,281,0.0,-999.0,100,-99.99,,,0.01,weatherlink.com 1.10,2013-08-11 09:21:00,
2013-08-11 05:36:00,71.6,72.0,30.09,West,281,0.0,-999.0,100,-99.99,,,0.01,weatherlink.com 1.10,2013-08-11 09:36:00,
2013-08-11 06:06:00,71.3,71.0,30.10,West,281,0.0,-999.0,100,-99.99,,,0.01,weatherlink.com 1.10,2013-08-11 10:06:00,
2013-08-11 06:21:00,71.1,71.0,30.11,West,281,0.0,-999.0,100,-99.99,,,0.01,weatherlink.com 1.10,2013-08-11 10:21:00,
2013-08-11 06:51:00,70.9,71.0,30.12,West,281,0.0,-999.0,100,-99.99,,,0.01,weatherlink.com 1.10,2013-08-11 10:51:00,
2013-08-11 07:06:00,70.8,71.0,30.12,West,281,0.0,-999.0,100,-99.99,,,0.01,weatherlink.com 1.10,2013-08-11 11:06:00,
2013-08-11 07:21:00,70.6,71.0,30.11,West,281,0.0,-999.0,100,-99.99,,,0.01,weatherlink.com 1.10,2013-08-11 11:21:00,
2013-08-11 07:51:00,70.7,71.0,30.11,West,281,0.0,-999.0,100,-99.99,,,0.01,weatherlink.com 1.10,2013-08-11 11:51:00,
2013-08-11 08:06:00,71.0,71.0,30.11,West,281,0.0,-999.0,100,-99.99,,,0.01,weatherlink.com 1.10,2013-08-11 12:06:00,
2013-08-11 08:21:00,71.2,71.0,30.12,West,281,0.0,-999.0,100,-99.99,,,0.01,weatherlink.com 1.10,2013-08-11 12:21:00,
2013-08-11 08:36:00,71.7,72.0,30.12,West,262,0.0,-999.0,100,-99.99,,,0.01,weatherlink.com 1.10,2013-08-11 12:36:00,
2013-08-11 09:06:00,73.2,73.0,30.13,West,262,0.0,-999.0,100,-99.99,,,0.01,weatherlink.com 1.10,2013-08-11 13:06:00,
2013-08-11 09:21:00,73.8,74.0,30.14,West,262,1.0,-999.0,100,-99.99,,,0.01,weatherlink.com 1.10,2013-08-11 13:21:00,
2013-08-11 09:36:00,74.6,75.0,30.14,West,281,0.0,-999.0,100,-99.99,,,0.01,weatherlink.com 1.10,2013-08-11 13:36:00,
2013-08-11 09:52:00,75.6,76.0,30.13,WNW,289,0.0,-999.0,100,-99.99,,,0.01,weatherlink.com 1.10,2013-08-11 13:52:00,
2013-08-11 10:07:00,76.5,76.0,30.13,West,262,2.0,-999.0,98,-99.99,,,0.01,weatherlink.com 1.10,2013-08-11 14:07:00,
2013-08-11 11:07:00,79.6,77.0,30.14,NNW,343,1.0,-999.0,90,-99.99,,,0.01,weatherlink.com 1.10,2013-08-11 15:07:00,
2013-08-11 11:22:00,80.3,75.0,30.14,West,277,1.0,-999.0,84,-99.99,,,0.01,weatherlink.com 1.10,2013-08-11 15:22:00,
2013-08-11 11:52:00,81.1,76.0,30.12,SW,220,3.0,-999.0,84,-99.99,,,0.01,weatherlink.com 1.10,2013-08-11 15:52:00,
2013-08-11 12:07:00,82.6,77.0,30.12,WNW,300,1.0,-999.0,83,-99.99,,,0.01,weatherlink.com 1.10,2013-08-11 16:07:00,
2013-08-11 12:22:00,82.2,77.0,30.12,West,271,0.0,-999.0,83,-99.99,,,0.01,weatherlink.com 1.10,2013-08-11 16:22:00,
2013-08-11 12:52:00,83.9,76.0,30.11,SW,226,0.0,-999.0,77,-99.99,,,0.01,weatherlink.com 1.10,2013-08-11 16:52:00,
2013-08-11 13:07:00,84.0,78.0,30.10,ESE,122,2.0,-999.0,81,-99.99,,,0.01,weatherlink.com 1.10,2013-08-11 17:07:00,
2013-08-11 13:37:00,83.4,77.0,30.10,NW,310,1.0,-999.0,81,-99.99,,,0.01,weatherlink.com 1.10,2013-08-11 17:37:00,
2013-08-11 14:07:00,84.8,76.0,30.09,SW,226,1.0,-999.0,74,-99.99,,,0.01,weatherlink.com 1.10,2013-08-11 18:07:00,
2013-08-11 14:22:00,86.6,77.0,30.08,WNW,293,0.0,-999.0,73,-99.99,,,0.01,weatherlink.com 1.10,2013-08-11 18:22:00,
2013-08-11 14:37:00,85.5,77.0,30.08,South,180,0.0,-999.0,75,-99.99,,,0.01,weatherlink.com 1.10,2013-08-11 18:37:00,
2013-08-11 14:53:00,86.2,77.0,30.08,SSE,153,0.0,-999.0,73,-99.99,,,0.01,weatherlink.com 1.10,2013-08-11 18:53:00,
2013-08-11 15:07:00,86.3,78.0,30.07,South,180,1.0,-999.0,75,-99.99,,,0.01,weatherlink.com 1.10,2013-08-11 19:07:00,
2013-08-11 15:22:00,87.7,76.0,30.06,WNW,284,2.0,-999.0,69,-99.99,,,0.01,weatherlink.com 1.10,2013-08-11 19:22:00,
2013-08-11 15:37:00,87.4,77.0,30.06,WNW,285,0.0,-999.0,70,-99.99,,,0.01,weatherlink.com 1.10,2013-08-11 19:37:00,
2013-08-11 15:52:00,87.0,77.0,30.06,South,189,0.0,-999.0,73,-99.99,,,0.01,weatherlink.com 1.10,2013-08-11 19:52:00,
2013-08-11 16:22:00,87.2,77.0,30.05,WNW,287,2.0,-999.0,72,-99.99,,,0.01,weatherlink.com 1.10,2013-08-11 20:22:00,
2013-08-11 16:37:00,87.5,76.0,30.04,SSW,193,1.0,-999.0,68,-99.99,,,0.01,weatherlink.com 1.10,2013-08-11 20:37:00,
2013-08-11 16:52:00,87.4,75.0,30.04,WSW,242,1.0,-999.0,66,-99.99,,,0.01,weatherlink.com 1.10,2013-08-11 20:52:00,
2013-08-11 17:07:00,86.9,76.0,30.04,West,281,1.0,-999.0,70,-99.99,,,0.01,weatherlink.com 1.10,2013-08-11 21:07:00,
2013-08-11 17:23:00,86.7,75.0,30.03,South,171,0.0,-999.0,69,-99.99,,,0.01,weatherlink.com 1.10,2013-08-11 21:23:00,
2013-08-11 17:38:00,86.9,76.0,30.02,ESE,112,0.0,-999.0,70,-99.99,,,0.01,weatherlink.com 1.10,2013-08-11 21:38:00,
2013-08-11 17:53:00,86.4,77.0,30.03,ESE,112,0.0,-999.0,73,-99.99,,,0.01,weatherlink.com 1.10,2013-08-11 21:53:00,
2013-08-11 18:08:00,85.2,77.0,30.03,ESE,113,2.0,-999.0,75,-99.99,,,0.01,weatherlink.com 1.10,2013-08-11 22:08:00,
2013-08-11 18:23:00,84.9,77.0,30.03,NW,316,0.0,-999.0,77,-99.99,,,0.01,weatherlink.com 1.10,2013-08-11 22:23:00,
2013-08-11 18:38:00,84.8,77.0,30.03,SE,137,1.0,-999.0,76,-99.99,,,0.01,weatherlink.com 1.10,2013-08-11 22:38:00,
2013-08-11 18:53:00,84.7,76.0,30.04,SE,137,0.0,-999.0,75,-99.99,,,0.01,weatherlink.com 1.10,2013-08-11 22:53:00,
2013-08-11 19:08:00,84.6,77.0,30.03,SE,135,1.0,-999.0,78,-99.99,,,0.01,weatherlink.com 1.10,2013-08-11 23:08:00,
2013-08-11 19:38:00,83.5,76.0,30.04,West,265,0.0,-999.0,79,-99.99,,,0.01,weatherlink.com 1.10,2013-08-11 23:38:00,
2013-08-11 19:53:00,82.9,75.0,30.05,West,265,0.0,-999.0,78,-99.99,,,0.01,weatherlink.com 1.10,2013-08-11 23:53:00,
2013-08-11 20:08:00,82.6,76.0,30.06,West,265,0.0,-999.0,80,-99.99,,,0.01,weatherlink.com 1.10,2013-08-12 00:08:00,
2013-08-11 20:23:00,81.6,76.0,30.06,WNW,299,5.0,-999.0,82,-99.99,,,0.01,weatherlink.com 1.10,2013-08-12 00:23:00,
2013-08-11 20:38:00,80.9,75.0,30.07,North,353,2.0,-999.0,83,-99.99,,,0.01,weatherlink.com 1.10,2013-08-12 00:38:00,
2013-08-11 21:08:00,79.4,75.0,30.07,North,8,0.0,-999.0,85,-99.99,,,0.01,weatherlink.com 1.10,2013-08-12 01:08:00,
2013-08-11 21:23:00,78.6,75.0,30.07,North,8,0.0,-999.0,87,-99.99,,,0.01,weatherlink.com 1.10,2013-08-12 01:23:00,
2013-08-11 21:38:00,77.8,74.0,30.07,North,8,0.0,-999.0,89,-99.99,,,0.01,weatherlink.com 1.10,2013-08-12 01:38:00,
2013-08-11 21:53:00,77.0,74.0,30.09,North,8,0.0,-999.0,90,-99.99,,,0.01,weatherlink.com 1.10,2013-08-12 01:53:00,
2013-08-11 22:08:00,76.4,74.0,30.09,North,8,0.0,-999.0,92,-99.99,,,0.01,weatherlink.com 1.10,2013-08-12 02:08:00,
2013-08-11 22:23:00,75.9,74.0,30.09,North,8,0.0,-999.0,93,-99.99,,,0.01,weatherlink.com 1.10,2013-08-12 02:23:00,
2013-08-11 22:38:00,75.6,74.0,30.10,North,8,0.0,-999.0,94,-99.99,,,0.01,weatherlink.com 1.10,2013-08-12 02:38:00,
2013-08-11 22:53:00,75.2,74.0,30.10,North,8,0.0,-999.0,95,-99.99,,,0.01,weatherlink.com 1.10,2013-08-12 02:53:00,
2013-08-11 23:08:00,74.9,73.0,30.10,North,8,0.0,-999.0,95,-99.99,,,0.01,weatherlink.com 1.10,2013-08-12 03:08:00,
2013-08-11 23:53:00,74.4,74.0,30.09,North,8,0.0,-999.0,97,-99.99,,,0.00,weatherlink.com 1.10,2013-08-12 03:53:00,